KINDAKUN ROCKS(AUT) current weather conditions

sailwx.info

Wind from 150 at 20 knots

Air temperature 14.5° C
Dewpoint 14.4° C

Last reported at 2017-Aug-21 10:00 UTC.
Time now 2017-Aug-21 11:49 UTC

Location: N 53°19' W 132°46'.
View on Google Maps.

See reports from other nearby stations

  
Tides and Currents Weather Stations Pressure Air Temp Water Temp Dewpoint Dewpoint Depression Visibility Wind Speed Wind Dir Waves Ship Positions
date/time (UTC)wind fromknots sea level pressurealtimeterstation pressurevisibilityair tempwater tempwave heightnotes
2017-Aug-21 10:00 150 20 14.5
2017-Aug-21 09:00 150 20 14.0
2017-Aug-21 08:00 150 20 15.0
2017-Aug-21 07:00 150 20 14.8
2017-Aug-21 06:00 150 21 gusting 27 14.6
2017-Aug-21 05:00 160 24 gusting 28 14.8
2017-Aug-21 04:00 150 26 gusting 32 14.8
2017-Aug-21 03:00 150 21 gusting 27 14.7
2017-Aug-21 02:00 160 19 14.4
2017-Aug-21 01:00 150 20 14.0
2017-Aug-21 00:00 150 18 14.4
2017-Aug-20 23:00 160 13 14.4
2017-Aug-20 22:00 160 11 13.5
2017-Aug-20 21:00 180 11 14.1
2017-Aug-20 20:00 160 11 14.2
2017-Aug-20 19:00 150 9 14.2
2017-Aug-20 18:00 180 9 14.2
2017-Aug-20 17:00 160 8 14.0
2017-Aug-20 16:00 170 7 14.0
2017-Aug-20 15:00 170 7 14.0
2017-Aug-20 14:00 160 6 14.0
2017-Aug-20 13:00 150 8 14.1
2017-Aug-20 12:00 130 8 13.9
2017-Aug-20 11:00 130 7 14.0
2017-Aug-20 10:00 140 7 13.6
2017-Aug-20 09:00 130 7 13.1
2017-Aug-20 08:00 120 6 13.0
2017-Aug-20 07:00 130 6 13.0
2017-Aug-20 06:00 130 7 13.0
2017-Aug-20 05:00 200 0 12.9
2017-Aug-20 04:00 130 4 13.0
2017-Aug-20 03:00 140 6 13.4
2017-Aug-20 02:00 150 7 13.0
2017-Aug-20 01:00 160 18 13.4
2017-Aug-20 00:00 150 17 13.6
2017-Aug-19 23:00 160 14 14.0
2017-Aug-19 22:00 170 14 13.6
2017-Aug-19 21:00 180 13 14.0
2017-Aug-19 20:00 190 13 14.0
2017-Aug-19 19:00 190 11 14.2
2017-Aug-19 18:00 190 7 14.1
2017-Aug-19 17:00 170 6 13.0
2017-Aug-19 16:00 180 4 13.0
2017-Aug-19 15:00 230 2 13.0
2017-Aug-19 14:00 250 8 12.9
2017-Aug-19 12:00 160 6 13.2
2017-Aug-19 11:00 150 6 13.0